CZ-3A DEB, 35547

Orbit data source: Space-Track

CZ-3A DEB, 35547 is space debris in LEO originally from a launch on Fri, 02 Feb 2007 UTC launched from the Xichang Space Center, China (XSC). Debris objects in space refer to the collection of defunct objects orbiting the Earth. Examples of debris include non-operational satellites, rocket bodies, and fragments generated from explosions, collisions, or faulty payload assembly.

Loading next visibility...
Identifier
35547, 2007-003F
Orbit
LEO
Country
Flag of CNCN / PRC
Related business
Manufacturer
Unknown
Mission
Spacecraft
Bus & Motor
Unknown
Mass
Unknown
Launch date (UTC)
2007-02-02 (19 years ago)
Launch vehicle
Unknown
Launch site
Xichang Space Center, China (XSC)
Object type
Payload
Rocket body
Debris
Shape & HBR
Unknown shape, 0.1 m
Radar Cross Section
Medium (>0.1 m² and <1 m²)

Expand to show TLE details & history
Last TLE update: 23 hours ago

TLE from 23 hours ago
0 CZ-3A DEB
1 35547U 07003F   25340.51422529  .01040752  90749-4  19328-1 0  9994
2 35547  24.5105  46.8779 1618849 187.6478 169.6092 12.31022072 26508
Epoch: 2025-12-06T12:20Z
TLE epoch observation values (Epoch: 2025-12-06T12:20:29.065Z)
Latitude
-0°
Longitude
146.21592°
Altitude
2,809.65 km
Speed
6.041 km/s
True Right ascension
03h 07m 30s
True Declination
0° 00' 00"
Sunlit
Object was in full shadow at epoch
Visualization orbit readout
Latitude
Unknown
Longitude
Unknown
Altitude
Unknown
Speed
Unknown
Apparent Right ascension
Unknown
Apparent Declination
Unknown
Sunlit
N/A
Visualization observer readout
Local Sidereal Time
09:10:49
Azimuth
Unknown
Elevation
Unknown
Doppler factor
Unknown
Orbital elements
Apogee altitude
2,832.505 km
Perigee altitude
265.876 km
Semi-major axis
7,927.327 km
Eccentricity
0.16188
Inclination
24.5105°
RAAN
46.8779°
Arg. of periapsis
187.6478°
True anomaly
172.3959°
Mean anomaly
169.6092°
Eccentric anomaly
171.05188°
Mean motion
3.07506 °/min
Orbital period
117.07 mins
BSTAR
0.019328
Loading maneuver chart data...
Computing Atmospheric mass density...
Loading historical data...
Loading historical data...
Loading historical data...
Loading historical data...
Loading historical data...
Loading historical data...
Loading historical data...

Documentation

Showing up to 5 results
|